| time (UTC) | temp C | wind direction | speed KPH | gust KPH | rain 1hr cm | rain 24hr cm | rain mn cm | humidity % | barometer mb |
| 20260503194550 | 27 | 335 | 0.0 | 4.8 | 0.00 | 0.00 | 0.00 | 43 | 1010.2 |
| 20260503193043 | 27 | 0 | 0.0 | 4.8 | 0.00 | 0.00 | 0.00 | 47 | 1010.3 |
| 20260503191548 | 27 | 0 | 0.0 | 8.0 | 0.00 | 0.00 | 0.00 | 53 | 1010.6 |
| 20260503190059 | 26 | 0 | 0.0 | 8.0 | 0.00 | 0.00 | 0.00 | 55 | 1010.7 |
| 20260503184551 | 26 | 0 | 1.6 | 8.0 | 0.00 | 0.00 | 0.00 | 57 | 1010.8 |
| 20260503183059 | 25 | 0 | 0.0 | 8.0 | 0.00 | 0.00 | 0.00 | 56 | 1011.1 |
| 20260503181548 | 24 | 0 | 0.0 | 9.7 | 0.00 | 0.00 | 0.00 | 61 | 1011.1 |
| 20260503180056 | 23 | 0 | 0.0 | 8.0 | 0.00 | 0.00 | 0.00 | 63 | 1011.3 |
| 20260503174550 | 22 | 0 | 0.0 | 8.0 | 0.00 | 0.00 | 0.00 | 65 | 1011.5 |
| 20260503173139 | 21 | 350 | 0.0 | 8.0 | 0.00 | 0.00 | 0.00 | 62 | 1011.6 |
| 20260503171550 | 20 | 339 | 1.6 | 8.0 | 0.00 | 0.00 | 0.00 | 73 | 1011.8 |
| 20260503130104 | 10 | 0 | 0.0 | 0.0 | 0.00 | 0.00 | 0.00 | 94 | 1012.1 |
| 20260503081552 | 13 | 0 | 0.0 | 0.0 | 0.00 | 0.05 | 0.00 | 91 | 1012.7 |
| 20260503071545 | 13 | 0 | 0.0 | 0.0 | 0.00 | 0.05 | 0.00 | 90 | 1012.9 |
| 20260503054542 | 15 | 0 | 1.6 | 4.8 | 0.00 | 0.05 | 0.05 | 86 | 1012.8 |
| 20260503053049 | 15 | 0 | 0.0 | 0.0 | 0.00 | 0.05 | 0.05 | 85 | 1012.4 |
| 20260503051544 | 16 | 0 | 0.0 | 1.6 | 0.00 | 0.05 | 0.05 | 84 | 1012.5 |
| 20260503050048 | 16 | 0 | 0.0 | 0.0 | 0.00 | 0.05 | 0.05 | 82 | 1012.7 |
| 20260503044544 | 16 | 0 | 0.0 | 0.0 | 0.00 | 0.05 | 0.05 | 81 | 1013.0 |
| 20260503043043 | 17 | 0 | 0.0 | 0.0 | 0.00 | 0.05 | 0.05 | 80 | 1013.0 |
| 20260503041548 | 17 | 0 | 0.0 | 0.0 | 0.00 | 0.05 | 0.05 | 77 | 1013.1 |
| 20260503040047 | 17 | 0 | 0.0 | 0.0 | 0.00 | 0.05 | 0.05 | 77 | 1012.9 |
| 20260503034545 | 18 | 0 | 0.0 | 0.0 | 0.00 | 0.05 | 0.05 | 76 | 1013.0 |
| 20260503033042 | 18 | 0 | 0.0 | 3.2 | 0.00 | 0.05 | 0.05 | 74 | 1012.8 |
| 20260503031553 | 18 | 109 | 1.6 | 9.7 | 0.00 | 0.05 | 0.05 | 73 | 1012.7 |
| 20260503030050 | 18 | 109 | 1.6 | 8.0 | 0.00 | 0.05 | 0.05 | 71 | 1012.6 |
| 20260503024538 | 20 | 192 | 1.6 | 17.7 | 0.00 | 0.05 | 0.05 | 69 | 1012.5 |
| 20260503023038 | 20 | 200 | 8.0 | 17.7 | 0.00 | 0.05 | 0.05 | 66 | 1012.4 |
| 20260503021548 | 20 | 201 | 3.2 | 12.9 | 0.00 | 0.05 | 0.05 | 66 | 1012.2 |
| 20260503020051 | 20 | 275 | 0.0 | 4.8 | 0.00 | 0.05 | 0.05 | 68 | 1011.7 |
| 20260503014546 | 21 | 0 | 0.0 | 3.2 | 0.00 | 0.05 | 0.05 | 66 | 1011.4 |
| 20260503013040 | 21 | 0 | 0.0 | 3.2 | 0.00 | 0.05 | 0.05 | 64 | 1011.3 |
| 20260503011553 | 22 | 275 | 0.0 | 1.6 | 0.00 | 0.05 | 0.05 | 62 | 1011.3 |
| 20260503010044 | 22 | 0 | 0.0 | 4.8 | 0.00 | 0.05 | 0.05 | 58 | 1011.3 |
| 20260503004542 | 22 | 0 | 0.0 | 6.4 | 0.00 | 0.05 | 0.05 | 59 | 1011.4 |
| 20260503003041 | 22 | 0 | 0.0 | 9.7 | 0.00 | 0.05 | 0.05 | 57 | 1011.4 |
| 20260503001544 | 23 | 275 | 1.6 | 9.7 | 0.00 | 0.05 | 0.05 | 57 | 1011.3 |
| 20260503000059 | 22 | 327 | 3.2 | 9.7 | 0.00 | 0.05 | 0.05 | 55 | 1011.4 |
| 20260502234546 | 22 | 0 | 4.8 | 12.9 | 0.00 | 0.05 | 0.05 | 58 | 1011.5 |
| 20260502233042 | 22 | 292 | 3.2 | 12.9 | 0.00 | 0.05 | 0.05 | 59 | 1011.5 |
| 20260502231612 | 22 | 281 | 1.6 | 12.9 | 0.00 | 0.05 | 0.05 | 58 | 1011.8 |
| 20260502230042 | 22 | 271 | 6.4 | 14.5 | 0.00 | 0.05 | 0.05 | 59 | 1011.9 |
| 20260502224555 | 21 | 0 | 0.0 | 11.3 | 0.00 | 0.05 | 0.05 | 63 | 1012.3 |
| 20260502223047 | 21 | 0 | 4.8 | 12.9 | 0.00 | 0.05 | 0.05 | 64 | 1012.6 |
| 20260502221549 | 20 | 0 | 0.0 | 8.0 | 0.00 | 0.05 | 0.05 | 63 | 1012.8 |
| 20260502220048 | 20 | 0 | 0.0 | 4.8 | 0.00 | 0.05 | 0.05 | 63 | 1013.1 |
| 20260502214550 | 20 | 0 | 0.0 | 6.4 | 0.00 | 0.05 | 0.05 | 63 | 1013.3 |
| 20260502213050 | 20 | 0 | 1.6 | 6.4 | 0.00 | 0.05 | 0.05 | 63 | 1013.6 |
| 20260502211549 | 20 | 0 | 0.0 | 4.8 | 0.00 | 0.05 | 0.05 | 65 | 1013.7 |
| 20260502210046 | 19 | 273 | 3.2 | 12.9 | 0.00 | 0.05 | 0.05 | 65 | 1013.9 |
| 20260502204548 | 18 | 284 | 1.6 | 11.3 | 0.00 | 0.05 | 0.05 | 67 | 1014.1 |
| 20260502203048 | 18 | 0 | 1.6 | 8.0 | 0.00 | 0.05 | 0.05 | 68 | 1014.5 |
| 20260502201543 | 18 | 0 | 1.6 | 14.5 | 0.00 | 0.05 | 0.05 | 71 | 1014.7 |
| 20260502200049 | 17 | 298 | 1.6 | 11.3 | 0.00 | 0.05 | 0.05 | 69 | 1014.8 |